Year,Month,Day,Hour,Minute,Value (Times are PST for insolation in W/m^2)
2010,07,05,00,00,0.00
2010,07,05,00,01,0.00
2010,07,05,00,02,0.00
2010,07,05,00,03,0.00
2010,07,05,00,04,0.00
2010,07,05,00,05,0.00
2010,07,05,00,06,0.00
2010,07,05,00,07,0.00
2010,07,05,00,08,0.00
2010,07,05,00,09,0.00
2010,07,05,00,10,0.00
2010,07,05,00,11,0.00
2010,07,05,00,12,0.00
2010,07,05,00,13,0.00
2010,07,05,00,14,0.00
2010,07,05,00,15,0.00
2010,07,05,00,16,0.00
2010,07,05,00,17,0.00
2010,07,05,00,18,0.00
2010,07,05,00,19,0.00
2010,07,05,00,20,0.00
2010,07,05,00,21,0.00
2010,07,05,00,22,0.00
2010,07,05,00,23,0.00
2010,07,05,00,24,0.00
2010,07,05,00,25,0.00
2010,07,05,00,26,0.00
2010,07,05,00,27,0.00
2010,07,05,00,28,0.00
2010,07,05,00,29,0.00
2010,07,05,00,30,0.00
2010,07,05,00,31,0.00
2010,07,05,00,32,0.00
2010,07,05,00,33,0.00
2010,07,05,00,34,0.00
2010,07,05,00,35,0.00
2010,07,05,00,36,0.00
2010,07,05,00,37,0.00
2010,07,05,00,38,0.00
2010,07,05,00,39,0.00
2010,07,05,00,40,0.00
2010,07,05,00,41,0.00
2010,07,05,00,42,0.00
2010,07,05,00,43,0.00
2010,07,05,00,44,0.00
2010,07,05,00,45,0.00
2010,07,05,00,46,0.00
2010,07,05,00,47,0.00
2010,07,05,00,48,0.00
2010,07,05,00,49,0.00
2010,07,05,00,50,0.00
2010,07,05,00,51,0.00
2010,07,05,00,52,0.00
2010,07,05,00,53,0.00
2010,07,05,00,54,0.00
2010,07,05,00,55,0.00
2010,07,05,00,56,0.00
2010,07,05,00,57,0.00
2010,07,05,00,58,0.00
2010,07,05,00,59,0.00
2010,07,05,01,00,0.00
2010,07,05,01,01,0.00
2010,07,05,01,02,0.00
2010,07,05,01,03,0.00
2010,07,05,01,04,0.00
2010,07,05,01,05,0.00
2010,07,05,01,06,0.00
2010,07,05,01,07,0.00
2010,07,05,01,08,0.00
2010,07,05,01,09,0.00
2010,07,05,01,10,0.00
2010,07,05,01,11,0.00
2010,07,05,01,12,0.00
2010,07,05,01,13,0.00
2010,07,05,01,14,0.00
2010,07,05,01,15,0.00
2010,07,05,01,16,0.00
2010,07,05,01,17,0.00
2010,07,05,01,18,0.00
2010,07,05,01,19,0.00
2010,07,05,01,20,0.00
2010,07,05,01,21,0.00
2010,07,05,01,22,0.00
2010,07,05,01,23,0.00
2010,07,05,01,24,0.00
2010,07,05,01,25,0.00
2010,07,05,01,26,0.00
2010,07,05,01,27,0.00
2010,07,05,01,28,0.00
2010,07,05,01,29,0.00
2010,07,05,01,30,0.00
2010,07,05,01,31,0.00
2010,07,05,01,32,0.00
2010,07,05,01,33,0.00
2010,07,05,01,34,0.00
2010,07,05,01,35,0.00
2010,07,05,01,36,0.00
2010,07,05,01,37,0.00
2010,07,05,01,38,0.00
2010,07,05,01,39,0.00
2010,07,05,01,40,0.00
2010,07,05,01,41,0.00
2010,07,05,01,42,0.00
2010,07,05,01,43,0.00
2010,07,05,01,44,0.00
2010,07,05,01,45,0.00
2010,07,05,01,46,0.00
2010,07,05,01,47,0.00
2010,07,05,01,48,0.00
2010,07,05,01,49,0.00
2010,07,05,01,50,0.00
2010,07,05,01,51,0.00
2010,07,05,01,52,0.00
2010,07,05,01,53,0.00
2010,07,05,01,54,0.00
2010,07,05,01,55,0.00
2010,07,05,01,56,0.00
2010,07,05,01,57,0.00
2010,07,05,01,58,0.00
2010,07,05,01,59,0.00
2010,07,05,02,00,0.00
2010,07,05,02,01,0.00
2010,07,05,02,02,0.00
2010,07,05,02,03,0.00
2010,07,05,02,04,0.00
2010,07,05,02,05,0.00
2010,07,05,02,06,0.00
2010,07,05,02,07,0.00
2010,07,05,02,08,0.00
2010,07,05,02,09,0.00
2010,07,05,02,10,0.00
2010,07,05,02,11,0.00
2010,07,05,02,12,0.00
2010,07,05,02,13,0.00
2010,07,05,02,14,0.00
2010,07,05,02,15,0.00
2010,07,05,02,16,0.00
2010,07,05,02,17,0.00
2010,07,05,02,18,0.00
2010,07,05,02,19,0.00
2010,07,05,02,20,0.00
2010,07,05,02,21,0.00
2010,07,05,02,22,0.00
2010,07,05,02,23,0.00
2010,07,05,02,24,0.00
2010,07,05,02,25,0.00
2010,07,05,02,26,0.00
2010,07,05,02,27,0.00
2010,07,05,02,28,0.00
2010,07,05,02,29,0.00
2010,07,05,02,30,0.00
2010,07,05,02,31,0.00
2010,07,05,02,32,0.00
2010,07,05,02,33,0.00
2010,07,05,02,34,0.00
2010,07,05,02,35,0.00
2010,07,05,02,36,0.00
2010,07,05,02,37,0.00
2010,07,05,02,38,0.00
2010,07,05,02,39,0.00
2010,07,05,02,40,0.00
2010,07,05,02,41,0.00
2010,07,05,02,42,0.00
2010,07,05,02,43,0.00
2010,07,05,02,44,0.00
2010,07,05,02,45,0.00
2010,07,05,02,46,0.00
2010,07,05,02,47,0.00
2010,07,05,02,48,0.00
2010,07,05,02,49,0.00
2010,07,05,02,50,0.00
2010,07,05,02,51,0.00
2010,07,05,02,52,0.00
2010,07,05,02,53,0.00
2010,07,05,02,54,0.00
2010,07,05,02,55,0.00
2010,07,05,02,56,0.00
2010,07,05,02,57,0.00
2010,07,05,02,58,0.00
2010,07,05,02,59,0.00
2010,07,05,03,00,0.00
2010,07,05,03,01,0.00
2010,07,05,03,02,0.00
2010,07,05,03,03,0.00
2010,07,05,03,06,0.00
2010,07,05,03,07,0.00
2010,07,05,03,08,0.00
2010,07,05,03,09,0.00
2010,07,05,03,10,0.00
2010,07,05,03,11,0.00
2010,07,05,03,12,0.00
2010,07,05,03,13,0.00
2010,07,05,03,14,0.00
2010,07,05,03,15,0.00
2010,07,05,03,16,0.00
2010,07,05,03,17,0.00
2010,07,05,03,18,0.00
2010,07,05,03,19,0.00
2010,07,05,03,20,0.00
2010,07,05,03,21,0.00
2010,07,05,03,22,0.00
2010,07,05,03,23,0.00
2010,07,05,03,24,0.00
2010,07,05,03,25,0.00
2010,07,05,03,26,0.00
2010,07,05,03,27,0.00
2010,07,05,03,28,0.00
2010,07,05,03,29,0.00
2010,07,05,03,30,0.00
2010,07,05,03,31,0.00
2010,07,05,03,32,0.00
2010,07,05,03,33,0.00
2010,07,05,03,34,0.00
2010,07,05,03,35,0.00
2010,07,05,03,36,0.00
2010,07,05,03,37,0.00
2010,07,05,03,38,0.00
2010,07,05,03,39,0.00
2010,07,05,03,40,0.00
2010,07,05,03,41,0.00
2010,07,05,03,42,0.00
2010,07,05,03,43,0.00
2010,07,05,03,44,0.00
2010,07,05,03,45,0.00
2010,07,05,03,46,0.00
2010,07,05,03,47,0.00
2010,07,05,03,48,0.00
2010,07,05,03,49,0.00
2010,07,05,03,50,0.00
2010,07,05,03,51,0.00
2010,07,05,03,52,0.00
2010,07,05,03,53,0.00
2010,07,05,03,54,0.00
2010,07,05,03,55,0.00
2010,07,05,03,56,0.00
2010,07,05,03,57,0.00
2010,07,05,03,58,0.00
2010,07,05,03,59,0.00
2010,07,05,04,00,0.00
2010,07,05,04,01,0.00
2010,07,05,04,02,0.00
2010,07,05,04,03,0.00
2010,07,05,04,04,0.00
2010,07,05,04,05,0.00
2010,07,05,04,06,0.00
2010,07,05,04,07,0.00
2010,07,05,04,08,0.00
2010,07,05,04,09,0.00
2010,07,05,04,10,0.00
2010,07,05,04,11,0.00
2010,07,05,04,12,0.00
2010,07,05,04,13,0.00
2010,07,05,04,14,0.00
2010,07,05,04,15,0.00
2010,07,05,04,16,0.00
2010,07,05,04,17,0.00
2010,07,05,04,18,0.00
2010,07,05,04,19,0.00
2010,07,05,04,20,0.00
2010,07,05,04,21,0.00
2010,07,05,04,22,0.00
2010,07,05,04,23,0.00
2010,07,05,04,24,0.00
2010,07,05,04,25,0.00
2010,07,05,04,26,0.00
2010,07,05,04,27,0.00
2010,07,05,04,28,0.00
2010,07,05,04,29,0.00
2010,07,05,04,30,0.00
2010,07,05,04,31,0.00
2010,07,05,04,32,0.00
2010,07,05,04,33,0.00
2010,07,05,04,34,0.00
2010,07,05,04,35,0.00
2010,07,05,04,36,0.00
2010,07,05,04,37,0.00
2010,07,05,04,38,0.00
2010,07,05,04,39,0.00
2010,07,05,04,40,0.00
2010,07,05,04,41,0.00
2010,07,05,04,42,0.00
2010,07,05,04,43,0.00
2010,07,05,04,44,0.00
2010,07,05,04,45,0.00
2010,07,05,04,46,0.00
2010,07,05,04,47,0.00
2010,07,05,04,48,0.00
2010,07,05,04,49,0.00
2010,07,05,04,50,0.00
2010,07,05,04,51,0.00
2010,07,05,04,52,0.00
2010,07,05,04,53,0.00
2010,07,05,04,54,0.00
2010,07,05,04,55,0.00
2010,07,05,04,56,0.00
2010,07,05,04,57,0.00
2010,07,05,04,58,0.00
2010,07,05,04,59,0.00
2010,07,05,05,00,0.00
2010,07,05,05,01,0.00
2010,07,05,05,02,0.00
2010,07,05,05,03,0.00
2010,07,05,05,04,0.00
2010,07,05,05,05,0.00
2010,07,05,05,06,0.00
2010,07,05,05,07,0.00
2010,07,05,05,08,0.00
2010,07,05,05,09,0.00
2010,07,05,05,10,0.00
2010,07,05,05,11,0.00
2010,07,05,05,12,0.00
2010,07,05,05,13,0.00
2010,07,05,05,14,0.00
2010,07,05,05,15,0.00
2010,07,05,05,16,0.00
2010,07,05,05,17,0.00
2010,07,05,05,18,0.00
2010,07,05,05,19,0.00
2010,07,05,05,20,0.00
2010,07,05,05,21,0.00
2010,07,05,05,22,0.00
2010,07,05,05,23,0.00
2010,07,05,05,24,0.00
2010,07,05,05,25,0.00
2010,07,05,05,26,0.00
2010,07,05,05,27,0.00
2010,07,05,05,28,0.00
2010,07,05,05,29,0.00
2010,07,05,05,30,0.00
2010,07,05,05,31,0.00
2010,07,05,05,32,0.00
2010,07,05,05,33,0.00
2010,07,05,05,34,0.00
2010,07,05,05,35,0.00
2010,07,05,05,36,0.00
2010,07,05,05,37,0.00
2010,07,05,05,38,0.00
2010,07,05,05,39,0.00
2010,07,05,05,40,0.00
2010,07,05,05,41,0.00
2010,07,05,05,42,0.00
2010,07,05,05,43,0.00
2010,07,05,05,44,0.00
2010,07,05,05,45,0.00
2010,07,05,05,46,0.00
2010,07,05,05,47,0.00
2010,07,05,05,48,0.00
2010,07,05,05,49,0.00
2010,07,05,05,50,0.00
2010,07,05,05,51,0.00
2010,07,05,05,52,0.00
2010,07,05,05,53,0.00
2010,07,05,05,54,0.00
2010,07,05,05,55,0.00
2010,07,05,05,56,0.20
2010,07,05,05,57,5.00
2010,07,05,05,58,5.00
2010,07,05,05,59,5.00
2010,07,05,06,00,5.00
2010,07,05,06,01,5.00
2010,07,05,06,02,5.00
2010,07,05,06,03,5.00
2010,07,05,06,04,5.00
2010,07,05,06,05,5.00
2010,07,05,06,06,5.40
2010,07,05,06,07,7.00
2010,07,05,06,08,7.00
2010,07,05,06,09,7.00
2010,07,05,06,10,8.40
2010,07,05,06,11,9.00
2010,07,05,06,12,10.80
2010,07,05,06,13,11.90
2010,07,05,06,14,12.30
2010,07,05,06,15,14.00
2010,07,05,06,16,14.70
2010,07,05,06,17,16.90
2010,07,05,06,18,18.50
2010,07,05,06,19,20.50
2010,07,05,06,20,21.00
2010,07,05,06,21,24.40
2010,07,05,06,22,26.10
2010,07,05,06,23,28.30
2010,07,05,06,24,30.00
2010,07,05,06,25,30.00
2010,07,05,06,26,30.00
2010,07,05,06,27,30.00
2010,07,05,06,28,28.60
2010,07,05,06,29,26.40
2010,07,05,06,30,26.00
2010,07,05,06,31,26.20
2010,07,05,06,32,28.00
2010,07,05,06,33,28.70
2010,07,05,06,34,29.10
2010,07,05,06,35,28.00
2010,07,05,06,36,26.80
2010,07,05,06,37,26.00
2010,07,05,06,38,25.10
2010,07,05,06,39,25.00
2010,07,05,06,40,25.00
2010,07,05,06,41,25.00
2010,07,05,06,42,25.00
2010,07,05,06,43,25.50
2010,07,05,06,44,26.00
2010,07,05,06,45,25.30
2010,07,05,06,46,25.00
2010,07,05,06,47,25.00
2010,07,05,06,48,26.00
2010,07,05,06,49,26.00
2010,07,05,06,50,26.00
2010,07,05,06,51,26.00
2010,07,05,06,52,27.00
2010,07,05,06,53,29.20
2010,07,05,06,54,30.00
2010,07,05,06,55,31.60
2010,07,05,06,56,32.00
2010,07,05,06,57,32.00
2010,07,05,06,58,32.30
2010,07,05,06,59,33.00
2010,07,05,07,00,33.80
2010,07,05,07,01,36.10
2010,07,05,07,02,39.00
2010,07,05,07,03,42.80
2010,07,05,07,04,45.70
2010,07,05,07,05,49.10
2010,07,05,07,06,51.60
2010,07,05,07,07,54.00
2010,07,05,07,08,54.00
2010,07,05,07,09,54.00
2010,07,05,07,10,54.00
2010,07,05,07,11,53.30
2010,07,05,07,12,53.00
2010,07,05,07,13,53.00
2010,07,05,07,14,53.10
2010,07,05,07,15,54.00
2010,07,05,07,16,53.70
2010,07,05,07,17,52.10
2010,07,05,07,18,51.00
2010,07,05,07,19,52.20
2010,07,05,07,20,53.80
2010,07,05,07,21,57.60
2010,07,05,07,22,59.90
2010,07,05,07,23,58.00
2010,07,05,07,24,58.00
2010,07,05,07,25,58.00
2010,07,05,07,26,58.00
2010,07,05,07,27,58.00
2010,07,05,07,28,62.50
2010,07,05,07,29,68.30
2010,07,05,07,30,71.60
2010,07,05,07,31,73.90
2010,07,05,07,32,73.60
2010,07,05,07,33,71.40
2010,07,05,07,34,70.80
2010,07,05,07,35,73.10
2010,07,05,07,36,75.30
2010,07,05,07,37,78.10
2010,07,05,07,38,82.20
2010,07,05,07,39,83.00
2010,07,05,07,40,80.40
2010,07,05,07,41,75.90
2010,07,05,07,42,70.20
2010,07,05,07,43,66.10
2010,07,05,07,44,63.90
2010,07,05,07,45,63.00
2010,07,05,07,46,62.20
2010,07,05,07,47,60.20
2010,07,05,07,48,56.10
2010,07,05,07,49,54.00
2010,07,05,07,50,53.80
2010,07,05,07,51,53.00
2010,07,05,07,52,53.00
2010,07,05,07,53,53.60
2010,07,05,07,54,54.00
2010,07,05,07,55,54.00
2010,07,05,07,56,53.10
2010,07,05,07,57,50.60
2010,07,05,07,58,46.40
2010,07,05,07,59,42.80
2010,07,05,08,00,39.60
2010,07,05,08,01,39.00
2010,07,05,08,02,39.00
2010,07,05,08,03,39.00
2010,07,05,08,04,39.00
2010,07,05,08,05,39.00
2010,07,05,08,06,39.00
2010,07,05,08,07,39.00
2010,07,05,08,08,38.30
2010,07,05,08,09,37.00
2010,07,05,08,10,38.20
2010,07,05,08,11,37.60
2010,07,05,08,12,37.00
2010,07,05,08,13,37.00
2010,07,05,08,14,37.00
2010,07,05,08,15,37.00
2010,07,05,08,16,37.00
2010,07,05,08,17,37.00
2010,07,05,08,18,38.10
2010,07,05,08,19,39.00
2010,07,05,08,20,39.00
2010,07,05,08,21,39.00
2010,07,05,08,22,39.90
2010,07,05,08,23,40.00
2010,07,05,08,24,40.50
2010,07,05,08,25,42.00
2010,07,05,08,26,42.80
2010,07,05,08,27,44.00
2010,07,05,08,28,44.00
2010,07,05,08,29,42.60
2010,07,05,08,30,42.00
2010,07,05,08,31,42.00
2010,07,05,08,32,42.00
2010,07,05,08,33,42.00
2010,07,05,08,34,42.00
2010,07,05,08,35,43.00
2010,07,05,08,36,44.00
2010,07,05,08,37,44.00
2010,07,05,08,38,44.00
2010,07,05,08,39,42.20
2010,07,05,08,40,42.00
2010,07,05,08,41,42.40
2010,07,05,08,42,44.60
2010,07,05,08,43,46.40
2010,07,05,08,44,48.10
2010,07,05,08,45,50.20
2010,07,05,08,46,52.60
2010,07,05,08,47,53.00
2010,07,05,08,48,54.00
2010,07,05,08,49,54.30
2010,07,05,08,50,56.00
2010,07,05,08,51,56.70
2010,07,05,08,52,58.90
2010,07,05,08,53,60.00
2010,07,05,08,54,61.30
2010,07,05,08,55,62.80
2010,07,05,08,56,63.00
2010,07,05,08,57,63.20
2010,07,05,08,58,65.00
2010,07,05,08,59,65.00
2010,07,05,09,00,65.00
2010,07,05,09,01,66.00
2010,07,05,09,02,67.00
2010,07,05,09,03,67.00
2010,07,05,09,04,68.70
2010,07,05,09,05,69.90
2010,07,05,09,06,72.40
2010,07,05,09,07,76.30
2010,07,05,09,08,77.70
2010,07,05,09,09,79.90
2010,07,05,09,10,81.00
2010,07,05,09,11,81.00
2010,07,05,09,12,82.50
2010,07,05,09,13,83.00
2010,07,05,09,14,83.10
2010,07,05,09,15,84.30
2010,07,05,09,16,87.10
2010,07,05,09,17,90.30
2010,07,05,09,18,92.10
2010,07,05,09,19,94.20
2010,07,05,09,20,96.40
2010,07,05,09,21,97.00
2010,07,05,09,22,95.20
2010,07,05,09,23,92.80
2010,07,05,09,24,90.30
2010,07,05,09,25,87.30
2010,07,05,09,26,85.20
2010,07,05,09,27,84.00
2010,07,05,09,28,83.30
2010,07,05,09,29,83.00
2010,07,05,09,30,81.20
2010,07,05,09,31,81.00
2010,07,05,09,32,81.00
2010,07,05,09,33,81.50
2010,07,05,09,34,84.10
2010,07,05,09,35,88.00
2010,07,05,09,36,91.70
2010,07,05,09,37,94.30
2010,07,05,09,38,96.50
2010,07,05,09,39,97.80
2010,07,05,09,40,100.10
2010,07,05,09,41,102.40
2010,07,05,09,42,104.30
2010,07,05,09,43,105.80
2010,07,05,09,44,107.00
2010,07,05,09,45,108.30
2010,07,05,09,46,111.90
2010,07,05,09,47,113.80
2010,07,05,09,48,114.00
2010,07,05,09,49,116.00
2010,07,05,09,50,116.00
2010,07,05,09,51,116.00
2010,07,05,09,52,116.00
2010,07,05,09,53,116.00
2010,07,05,09,54,117.30
2010,07,05,09,55,120.10
2010,07,05,09,56,122.70
2010,07,05,09,57,123.10
2010,07,05,09,58,125.00
2010,07,05,09,59,125.60
2010,07,05,10,00,127.40
2010,07,05,10,01,128.00
2010,07,05,10,02,128.00
2010,07,05,10,03,128.00
2010,07,05,10,04,128.00
2010,07,05,10,05,128.00
2010,07,05,10,06,127.00
2010,07,05,10,07,126.60
2010,07,05,10,08,125.00
2010,07,05,10,09,125.90
2010,07,05,10,10,127.50
2010,07,05,10,11,130.70
2010,07,05,10,12,134.30
2010,07,05,10,13,135.00
2010,07,05,10,14,135.10
2010,07,05,10,15,137.60
2010,07,05,10,16,141.80
2010,07,05,10,17,145.80
2010,07,05,10,18,152.00
2010,07,05,10,19,157.80
2010,07,05,10,20,163.20
2010,07,05,10,21,169.50
2010,07,05,10,22,176.90
2010,07,05,10,23,186.70
2010,07,05,10,24,198.70
2010,07,05,10,25,209.40
2010,07,05,10,26,218.00
2010,07,05,10,27,223.00
2010,07,05,10,28,226.10
2010,07,05,10,29,227.00
2010,07,05,10,30,227.00
2010,07,05,10,31,229.80
2010,07,05,10,32,232.00
2010,07,05,10,33,234.80
2010,07,05,10,34,241.70
2010,07,05,10,35,234.70
2010,07,05,10,36,224.40
2010,07,05,10,37,212.90
2010,07,05,10,38,203.80
2010,07,05,10,39,200.20
2010,07,05,10,40,199.90
2010,07,05,10,41,199.20
2010,07,05,10,42,201.10
2010,07,05,10,43,207.80
2010,07,05,10,44,219.00
2010,07,05,10,45,231.60
2010,07,05,10,46,241.90
2010,07,05,10,47,247.40
2010,07,05,10,48,250.80
2010,07,05,10,49,251.00
2010,07,05,10,50,251.00
2010,07,05,10,51,251.00
2010,07,05,10,52,250.60
2010,07,05,10,53,247.90
2010,07,05,10,54,244.00
2010,07,05,10,55,241.60
2010,07,05,10,56,242.60
2010,07,05,10,57,246.00
2010,07,05,10,58,252.10
2010,07,05,10,59,260.90
2010,07,05,11,00,275.70
2010,07,05,11,01,292.60
2010,07,05,11,02,306.80
2010,07,05,11,03,315.80
2010,07,05,11,04,318.00
2010,07,05,11,05,313.30
2010,07,05,11,06,306.10
2010,07,05,11,07,302.40
2010,07,05,11,08,305.50
2010,07,05,11,09,311.90
2010,07,05,11,10,316.00
2010,07,05,11,11,316.00
2010,07,05,11,12,313.80
2010,07,05,11,13,305.40
2010,07,05,11,14,304.00
2010,07,05,11,15,316.90
2010,07,05,11,16,340.60
2010,07,05,11,17,367.10
2010,07,05,11,18,381.00
2010,07,05,11,19,399.00
2010,07,05,11,20,428.00
2010,07,05,11,21,448.00
2010,07,05,11,22,466.50
2010,07,05,11,23,483.00
2010,07,05,11,24,482.50
2010,07,05,11,25,479.50
2010,07,05,11,26,484.70
2010,07,05,11,27,508.20
2010,07,05,11,28,544.30
2010,07,05,11,29,578.70
2010,07,05,11,30,578.70
2010,07,05,11,31,557.20
2010,07,05,11,32,539.50
2010,07,05,11,33,525.90
2010,07,05,11,34,523.50
2010,07,05,11,35,532.60
2010,07,05,11,36,565.40
2010,07,05,11,37,570.10
2010,07,05,11,38,541.10
2010,07,05,11,39,516.30
2010,07,05,11,40,482.00
2010,07,05,11,41,434.00
2010,07,05,11,42,407.10
2010,07,05,11,43,393.30
2010,07,05,11,44,386.60
2010,07,05,11,45,385.00
2010,07,05,11,46,377.50
2010,07,05,11,47,356.30
2010,07,05,11,48,328.40
2010,07,05,11,49,302.40
2010,07,05,11,50,282.80
2010,07,05,11,51,270.80
2010,07,05,11,52,267.80
2010,07,05,11,53,270.50
2010,07,05,11,54,275.80
2010,07,05,11,55,278.70
2010,07,05,11,56,274.80
2010,07,05,11,57,267.40
2010,07,05,11,58,259.40
2010,07,05,11,59,254.60
2010,07,05,12,00,253.70
2010,07,05,12,01,256.30
2010,07,05,12,02,260.20
2010,07,05,12,03,263.30
2010,07,05,12,04,260.80
2010,07,05,12,05,251.10
2010,07,05,12,06,240.70
2010,07,05,12,07,237.10
2010,07,05,12,08,247.40
2010,07,05,12,09,262.80
2010,07,05,12,10,279.20
2010,07,05,12,11,298.80
2010,07,05,12,12,316.10
2010,07,05,12,13,326.80
2010,07,05,12,14,333.20
2010,07,05,12,15,331.30
2010,07,05,12,16,323.90
2010,07,05,12,17,320.60
2010,07,05,12,18,326.80
2010,07,05,12,19,345.10
2010,07,05,12,20,369.20
2010,07,05,12,21,392.20
2010,07,05,12,22,411.20
2010,07,05,12,23,432.10
2010,07,05,12,24,454.90
2010,07,05,12,25,490.80
2010,07,05,12,26,557.00
2010,07,05,12,27,607.40
2010,07,05,12,28,631.40
2010,07,05,12,29,609.70
2010,07,05,12,30,622.50
2010,07,05,12,31,633.00
2010,07,05,12,32,632.10
2010,07,05,12,33,618.50
2010,07,05,12,34,585.80
2010,07,05,12,35,545.60
2010,07,05,12,36,492.50
2010,07,05,12,37,459.20
2010,07,05,12,38,434.50
2010,07,05,12,39,399.40
2010,07,05,12,40,348.40
2010,07,05,12,41,310.70
2010,07,05,12,42,289.30
2010,07,05,12,43,276.50
2010,07,05,12,44,266.30
2010,07,05,12,45,253.30
2010,07,05,12,46,241.40
2010,07,05,12,47,231.50
2010,07,05,12,48,221.10
2010,07,05,12,49,210.50
2010,07,05,12,50,200.80
2010,07,05,12,51,195.00
2010,07,05,12,52,195.00
2010,07,05,12,53,195.00
2010,07,05,12,54,197.50
2010,07,05,12,55,204.10
2010,07,05,12,56,214.40
2010,07,05,12,57,227.70
2010,07,05,12,58,237.90
2010,07,05,12,59,246.00
2010,07,05,13,00,254.20
2010,07,05,13,01,278.30
2010,07,05,13,02,294.50
2010,07,05,13,03,308.60
2010,07,05,13,04,318.10
2010,07,05,13,05,322.40
2010,07,05,13,06,327.00
2010,07,05,13,07,341.30
2010,07,05,13,08,362.70
2010,07,05,13,09,375.30
2010,07,05,13,10,383.10
2010,07,05,13,11,396.40
2010,07,05,13,12,408.70
2010,07,05,13,13,414.20
2010,07,05,13,14,438.30
2010,07,05,13,15,496.80
2010,07,05,13,16,545.00
2010,07,05,13,17,545.00
2010,07,05,13,18,708.90
2010,07,05,13,19,990.00
2010,07,05,13,20,1138.40
2010,07,05,13,21,1202.90
2010,07,05,13,22,1195.00
2010,07,05,13,23,1195.00
2010,07,05,13,24,1204.00
2010,07,05,13,25,1144.80
2010,07,05,13,26,923.00
2010,07,05,13,27,923.00
2010,07,05,13,28,923.00
2010,07,05,13,29,923.00
2010,07,05,13,30,923.00
2010,07,05,13,31,923.00
2010,07,05,13,32,923.00
2010,07,05,13,33,923.00
2010,07,05,13,34,800.40
2010,07,05,13,35,455.90
2010,07,05,13,36,454.00
2010,07,05,13,37,456.80
2010,07,05,13,38,459.00
2010,07,05,13,39,459.00
2010,07,05,13,40,448.60
2010,07,05,13,41,435.10
2010,07,05,13,42,427.00
2010,07,05,13,43,418.60
2010,07,05,13,44,398.20
2010,07,05,13,45,396.50
2010,07,05,13,46,397.90
2010,07,05,13,47,400.60
2010,07,05,13,48,401.00
2010,07,05,13,49,397.40
2010,07,05,13,50,397.40
2010,07,05,13,51,401.50
2010,07,05,13,52,400.40
2010,07,05,13,53,392.00
2010,07,05,13,54,383.50
2010,07,05,13,55,380.00
2010,07,05,13,56,380.00
2010,07,05,13,57,380.90
2010,07,05,13,58,370.80
2010,07,05,13,59,353.80
2010,07,05,14,00,338.60
2010,07,05,14,01,331.30
2010,07,05,14,02,333.00
2010,07,05,14,03,343.30
2010,07,05,14,04,361.30
2010,07,05,14,05,384.50
2010,07,05,14,06,406.90
2010,07,05,14,07,418.70
2010,07,05,14,08,425.50
2010,07,05,14,09,441.00
2010,07,05,14,10,483.80
2010,07,05,14,11,457.60
2010,07,05,14,12,418.00
2010,07,05,14,13,418.00
2010,07,05,14,14,418.00
2010,07,05,14,15,418.00
2010,07,05,14,16,418.00
2010,07,05,14,17,418.00
2010,07,05,14,18,671.50
2010,07,05,14,19,1106.00
2010,07,05,14,20,1106.00
2010,07,05,14,21,1106.00
2010,07,05,14,22,1106.00
2010,07,05,14,23,1009.40
2010,07,05,14,24,964.40
2010,07,05,14,25,956.60
2010,07,05,14,26,965.40
2010,07,05,14,27,962.40
2010,07,05,14,28,965.10
2010,07,05,14,29,965.70
2010,07,05,14,30,961.50
2010,07,05,14,31,956.60
2010,07,05,14,32,961.70
2010,07,05,14,33,956.30
2010,07,05,14,34,957.60
2010,07,05,14,35,956.00
2010,07,05,14,36,958.80
2010,07,05,14,37,963.70
2010,07,05,14,38,967.70
2010,07,05,14,39,969.00
2010,07,05,14,40,969.00
2010,07,05,14,41,971.70
2010,07,05,14,42,969.00
2010,07,05,14,43,969.30
2010,07,05,14,44,970.00
2010,07,05,14,45,969.50
2010,07,05,14,46,967.90
2010,07,05,14,47,968.40
2010,07,05,14,48,969.00
2010,07,05,14,49,976.60
2010,07,05,14,50,986.40
2010,07,05,14,51,990.00
2010,07,05,14,52,992.10
2010,07,05,14,53,996.10
2010,07,05,14,54,992.20
2010,07,05,14,55,981.30
2010,07,05,14,56,971.30
2010,07,05,14,57,970.00
2010,07,05,14,58,964.30
2010,07,05,14,59,977.00
2010,07,05,15,00,976.20
2010,07,05,15,01,976.50
2010,07,05,15,02,981.00
2010,07,05,15,03,971.20
2010,07,05,15,04,963.50
2010,07,05,15,05,960.50
2010,07,05,15,06,947.70
2010,07,05,15,07,938.50
2010,07,05,15,08,929.70
2010,07,05,15,09,928.00
2010,07,05,15,10,930.10
2010,07,05,15,11,939.80
2010,07,05,15,12,948.10
2010,07,05,15,13,967.10
2010,07,05,15,14,974.00
2010,07,05,15,15,974.00
2010,07,05,15,16,934.00
2010,07,05,15,17,931.00
2010,07,05,15,18,890.70
2010,07,05,15,19,889.80
2010,07,05,15,20,914.00
2010,07,05,15,21,916.70
2010,07,05,15,22,918.80
2010,07,05,15,23,919.00
2010,07,05,15,24,918.10
2010,07,05,15,25,919.00
2010,07,05,15,26,918.10
2010,07,05,15,27,913.90
2010,07,05,15,28,904.50
2010,07,05,15,29,896.90
2010,07,05,15,30,893.90
2010,07,05,15,31,891.40
2010,07,05,15,32,894.60
2010,07,05,15,33,893.20
2010,07,05,15,34,896.20
2010,07,05,15,35,900.00
2010,07,05,15,36,899.20
2010,07,05,15,37,897.00
2010,07,05,15,38,894.00
2010,07,05,15,39,881.80
2010,07,05,15,40,877.00
2010,07,05,15,41,875.20
2010,07,05,15,42,875.00
2010,07,05,15,43,875.50
2010,07,05,15,44,877.70
2010,07,05,15,45,880.40
2010,07,05,15,46,886.30
2010,07,05,15,47,894.80
2010,07,05,15,48,903.30
2010,07,05,15,49,895.60
2010,07,05,15,50,876.50
2010,07,05,15,51,863.40
2010,07,05,15,52,865.00
2010,07,05,15,53,865.00
2010,07,05,15,54,867.60
2010,07,05,15,55,871.30
2010,07,05,15,56,858.30
2010,07,05,15,57,853.80
2010,07,05,15,58,854.00
2010,07,05,15,59,850.70
2010,07,05,16,00,848.40
2010,07,05,16,01,845.30
2010,07,05,16,02,841.20
2010,07,05,16,03,831.10
2010,07,05,16,04,833.30
2010,07,05,16,05,835.50
2010,07,05,16,06,827.70
2010,07,05,16,07,829.30
2010,07,05,16,08,814.50
2010,07,05,16,09,805.60
2010,07,05,16,10,805.50
2010,07,05,16,11,806.20
2010,07,05,16,12,809.00
2010,07,05,16,13,809.70
2010,07,05,16,14,807.60
2010,07,05,16,15,800.40
2010,07,05,16,16,795.50
2010,07,05,16,17,791.00
2010,07,05,16,18,790.30
2010,07,05,16,19,788.60
2010,07,05,16,20,786.90
2010,07,05,16,21,781.80
2010,07,05,16,22,784.50
2010,07,05,16,23,780.70
2010,07,05,16,24,779.90
2010,07,05,16,25,776.40
2010,07,05,16,26,771.90
2010,07,05,16,27,763.80
2010,07,05,16,28,755.10
2010,07,05,16,29,755.10
2010,07,05,16,30,758.10
2010,07,05,16,31,752.90
2010,07,05,16,32,758.10
2010,07,05,16,33,762.60
2010,07,05,16,34,757.50
2010,07,05,16,35,749.60
2010,07,05,16,36,749.60
2010,07,05,16,37,748.00
2010,07,05,16,38,749.00
2010,07,05,16,39,746.10
2010,07,05,16,40,744.20
2010,07,05,16,41,744.00
2010,07,05,16,42,738.20
2010,07,05,16,43,739.50
2010,07,05,16,44,736.30
2010,07,05,16,45,730.90
2010,07,05,16,46,728.00
2010,07,05,16,47,726.60
2010,07,05,16,48,722.90
2010,07,05,16,49,725.20
2010,07,05,16,50,719.50
2010,07,05,16,51,721.50
2010,07,05,16,52,718.40
2010,07,05,16,53,717.70
2010,07,05,16,54,717.00
2010,07,05,16,55,712.10
2010,07,05,16,56,708.50
2010,07,05,16,57,707.20
2010,07,05,16,58,705.10
2010,07,05,16,59,704.60
2010,07,05,17,00,701.00
2010,07,05,17,01,699.50
2010,07,05,17,02,696.00
2010,07,05,17,03,694.50
2010,07,05,17,04,693.00
2010,07,05,17,05,689.80
2010,07,05,17,06,686.30
2010,07,05,17,07,682.20
2010,07,05,17,08,686.00
2010,07,05,17,09,684.90
2010,07,05,17,10,682.00
2010,07,05,17,11,682.00
2010,07,05,17,12,680.80
2010,07,05,17,13,675.20
2010,07,05,17,14,671.30
2010,07,05,17,15,668.20
2010,07,05,17,16,667.60
2010,07,05,17,17,663.80